,,,PA_Meas_PMT16A,,PR_Meas_QMR101_102,,RH_Meas_QMH101,,SR_Meas_QMS101,,TA_Meas_QMH101,,GenWind,,GenWind,
date,time,status,PA,status,PR,status,RH,status,SR,status,TA,status,DirAvg,status,SpdAvg,
2009-03-31, 00:00:05,VALID,1004.46,VALID,0,VALID,82.6742,VALID,0,VALID,26.194,VALID,3,VALID,0.775,
2009-03-31, 00:01:05,VALID,1004.44,VALID,0,VALID,82.7428,VALID,0,VALID,26.2154,VALID,16,VALID,1.42617,
2009-03-31, 00:02:05,VALID,1004.4,VALID,0,VALID,82.842,VALID,0,VALID,26.194,VALID,12,VALID,0.675391,
2009-03-31, 00:03:05,VALID,1004.38,VALID,0,VALID,82.8878,VALID,0.100563,VALID,26.1745,VALID,360,VALID,0.700391,
2009-03-31, 00:04:05,VALID,1004.38,VALID,0,VALID,82.8344,VALID,0.100563,VALID,26.155,VALID,11,VALID,0.69375,
2009-03-31, 00:05:05,VALID,1004.37,VALID,0,VALID,83.0022,VALID,0,VALID,26.157,VALID,6,VALID,0.60625,
2009-03-31, 00:06:05,VALID,1004.37,VALID,0,VALID,82.9412,VALID,0,VALID,26.116,VALID,347,VALID,0.494141,
2009-03-31, 00:07:05,VALID,1004.38,VALID,0,VALID,83.048,VALID,0,VALID,26.118,VALID,8,VALID,0.776563,
2009-03-31, 00:08:05,VALID,1004.4,VALID,0,VALID,83.109,VALID,0,VALID,26.0985,VALID,360,VALID,0.714453,
2009-03-31, 00:09:05,VALID,1004.42,VALID,0,VALID,83.0861,VALID,0,VALID,26.0966,VALID,5,VALID,0.742188,
2009-03-31, 00:10:05,VALID,1004.42,VALID,0,VALID,83.0556,VALID,0,VALID,26.118,VALID,360,VALID,0.809375,
2009-03-31, 00:11:05,VALID,1004.41,VALID,0,VALID,83.0785,VALID,0,VALID,26.0771,VALID,8,VALID,0.365234,
2009-03-31, 00:12:05,VALID,1004.44,VALID,0,VALID,83.1472,VALID,0,VALID,26.0985,VALID,16,VALID,1.06406,
2009-03-31, 00:13:05,VALID,1004.46,VALID,0,VALID,83.1472,VALID,0,VALID,26.0985,VALID,358,VALID,0.822656,
2009-03-31, 00:14:05,VALID,1004.43,VALID,0,VALID,83.1929,VALID,0,VALID,26.0791,VALID,5,VALID,0.660547,
2009-03-31, 00:15:05,VALID,1004.4,VALID,0,VALID,83.2082,VALID,0,VALID,26.0791,VALID,356,VALID,0.829687,
2009-03-31, 00:16:05,VALID,1004.38,VALID,0,VALID,83.2616,VALID,0,VALID,26.0791,VALID,358,VALID,0.633984,
2009-03-31, 00:17:05,VALID,1004.37,VALID,0,VALID,83.2616,VALID,0,VALID,26.0791,VALID,352,VALID,0.966406,
2009-03-31, 00:18:05,VALID,1004.35,VALID,0,VALID,83.3531,VALID,0,VALID,26.0381,VALID,349,VALID,0.689844,
2009-03-31, 00:19:05,VALID,1004.33,VALID,0,VALID,83.376,VALID,0,VALID,26.0596,VALID,345,VALID,0.805078,
2009-03-31, 00:20:05,VALID,1004.28,VALID,0,VALID,83.4905,VALID,0,VALID,26.0596,VALID,2,VALID,0.375,
2009-03-31, 00:21:05,VALID,1004.29,VALID,0,VALID,83.5134,VALID,0,VALID,26.0187,VALID,356,VALID,0.804688,
2009-03-31, 00:22:05,VALID,1004.25,VALID,0,VALID,83.6583,VALID,0,VALID,26.0206,VALID,9,VALID,0.719922,
2009-03-31, 00:23:05,VALID,1004.24,VALID,0,VALID,83.6202,VALID,0,VALID,26.0206,VALID,4,VALID,1.23633,
2009-03-31, 00:24:05,VALID,1004.22,VALID,0,VALID,83.5896,VALID,0,VALID,26.0012,VALID,27,VALID,0.432422,
2009-03-31, 00:25:05,VALID,1004.22,VALID,0,VALID,83.6659,VALID,0,VALID,26.0206,VALID,17,VALID,0.574609,
2009-03-31, 00:26:05,VALID,1004.2,VALID,0,VALID,83.6049,VALID,0,VALID,26.0187,VALID,7,VALID,1.06133,
2009-03-31, 00:27:05,VALID,1004.2,VALID,0,VALID,83.4752,VALID,0,VALID,26.0381,VALID,29,VALID,1.65625,
2009-03-31, 00:28:05,VALID,1004.22,VALID,0,VALID,83.2845,VALID,0.100563,VALID,26.1355,VALID,2,VALID,1.15117,
2009-03-31, 00:29:05,VALID,1004.17,VALID,0,VALID,83.2235,VALID,0,VALID,26.1355,VALID,9,VALID,1.11016,
2009-03-31, 00:30:05,VALID,1004.18,VALID,0,VALID,83.1395,VALID,0,VALID,26.1355,VALID,350,VALID,0.621875,
2009-03-31, 00:31:05,VALID,1004.2,VALID,0,VALID,83.0709,VALID,0.100563,VALID,26.155,VALID,14,VALID,1.59766,
2009-03-31, 00:32:05,VALID,1004.2,VALID,0,VALID,83.0175,VALID,0.100563,VALID,26.155,VALID,339,VALID,0.861328,
2009-03-31, 00:33:05,VALID,1004.19,VALID,0,VALID,83.0556,VALID,0,VALID,26.1355,VALID,355,VALID,0.757422,
2009-03-31, 00:34:05,VALID,1004.17,VALID,0,VALID,83.1472,VALID,0,VALID,26.1355,VALID,17,VALID,0.551953,
2009-03-31, 00:35:05,VALID,1004.17,VALID,0,VALID,83.2235,VALID,0,VALID,26.116,VALID,6,VALID,0.478906,
2009-03-31, 00:36:05,VALID,1004.14,VALID,0,VALID,83.2006,VALID,0,VALID,26.0966,VALID,1,VALID,0.595312,
2009-03-31, 00:37:05,VALID,1004.11,VALID,0,VALID,83.1853,VALID,0,VALID,26.116,VALID,9,VALID,1.0125,
2009-03-31, 00:38:05,VALID,1004.05,VALID,0,VALID,83.0785,VALID,0.100563,VALID,26.155,VALID,14,VALID,1.32422,
2009-03-31, 00:39:05,VALID,1004.07,VALID,0,VALID,83.0251,VALID,0.100563,VALID,26.1745,VALID,12,VALID,0.908984,
2009-03-31, 00:40:05,VALID,1004.08,VALID,0,VALID,82.9336,VALID,0,VALID,26.1959,VALID,329,VALID,1.3168,
2009-03-31, 00:41:05,VALID,1004.03,VALID,0,VALID,82.9717,VALID,0,VALID,26.1765,VALID,17,VALID,0.628906,
2009-03-31, 00:42:05,VALID,1004.04,VALID,0,VALID,83.0251,VALID,0,VALID,26.1765,VALID,13,VALID,0.739062,
2009-03-31, 00:43:05,VALID,1004.03,VALID,0,VALID,83.1014,VALID,0,VALID,26.157,VALID,6,VALID,0.506641,
2009-03-31, 00:44:05,VALID,1004.04,VALID,0,VALID,83.1167,VALID,0,VALID,26.1765,VALID,356,VALID,0.704687,
2009-03-31, 00:45:05,VALID,1004.03,VALID,0,VALID,83.109,VALID,0,VALID,26.1765,VALID,13,VALID,1.05938,
2009-03-31, 00:46:05,VALID,1003.98,VALID,0,VALID,83.1395,VALID,0,VALID,26.155,VALID,4,VALID,0.733203,
2009-03-31, 00:47:05,VALID,1003.99,VALID,0,VALID,83.0709,VALID,0,VALID,26.1745,VALID,6,VALID,1.01602,
2009-03-31, 00:48:05,VALID,1004.01,VALID,0,VALID,83.0404,VALID,0,VALID,26.155,VALID,345,VALID,0.528516,
2009-03-31, 00:49:05,VALID,1004.02,VALID,0,VALID,83.1167,VALID,0,VALID,26.157,VALID,24,VALID,1.22734,
2009-03-31, 00:50:05,VALID,1004.01,VALID,0,VALID,83.1395,VALID,0,VALID,26.157,VALID,21,VALID,1.02891,
2009-03-31, 00:51:05,VALID,1004.03,VALID,0,VALID,83.1167,VALID,0,VALID,26.155,VALID,1,VALID,1.12617,
2009-03-31, 00:52:05,VALID,1004.04,VALID,0,VALID,82.9717,VALID,0,VALID,26.1959,VALID,2,VALID,1.18867,
2009-03-31, 00:53:05,VALID,1004.03,VALID,0,VALID,83.048,VALID,0,VALID,26.1765,VALID,346,VALID,0.483203,
2009-03-31, 00:54:05,VALID,1004.03,VALID,0,VALID,83.0022,VALID,0,VALID,26.1784,VALID,350,VALID,1.09727,
2009-03-31, 00:55:05,VALID,1004.02,VALID,0,VALID,83.1472,VALID,0,VALID,26.157,VALID,9,VALID,0.365625,
2009-03-31, 00:56:05,VALID,1004.01,VALID,0,VALID,83.0251,VALID,0,VALID,26.1375,VALID,15,VALID,0.805469,
2009-03-31, 00:57:05,VALID,1004.02,VALID,0,VALID,83.0709,VALID,0,VALID,26.1765,VALID,26,VALID,0.675391,
2009-03-31, 00:58:05,VALID,1004.04,VALID,0,VALID,83.109,VALID,0,VALID,26.157,VALID,356,VALID,0.496484,
2009-03-31, 00:59:05,VALID,1004.03,VALID,0,VALID,83.1701,VALID,0,VALID,26.118,VALID,357,VALID,0.427734,
2009-03-31, 01:00:05,VALID,1004.01,VALID,0,VALID,83.2387,VALID,0,VALID,26.0985,VALID,335,VALID,0.368359,
2009-03-31, 01:01:05,VALID,1004.01,VALID,0,VALID,83.2769,VALID,0,VALID,26.0576,VALID,22,VALID,0.911719,
2009-03-31, 01:02:05,VALID,1004.01,VALID,0,VALID,83.3074,VALID,0,VALID,26.0596,VALID,360,VALID,0.514063,
2009-03-31, 01:03:05,VALID,1003.98,VALID,0,VALID,83.2692,VALID,0,VALID,26.0381,VALID,347,VALID,0.330078,
2009-03-31, 01:04:05,VALID,1003.98,VALID,0,VALID,83.3379,VALID,0,VALID,26.0596,VALID,21,VALID,0.554297,
2009-03-31, 01:05:05,VALID,1003.93,VALID,0,VALID,83.3608,VALID,0,VALID,26.0401,VALID,348,VALID,0.503125,
2009-03-31, 01:06:05,VALID,1003.9,VALID,0,VALID,83.5134,VALID,0,VALID,26.0206,VALID,3,VALID,0.615234,
2009-03-31, 01:07:05,VALID,1003.91,VALID,0,VALID,83.5973,VALID,0,VALID,26.0012,VALID,359,VALID,0.566797,
2009-03-31, 01:08:05,VALID,1003.89,VALID,0,VALID,83.7422,VALID,0,VALID,25.9622,VALID,346,VALID,0.704687,
2009-03-31, 01:09:05,VALID,1003.86,VALID,0,VALID,83.7651,VALID,0,VALID,25.9622,VALID,340,VALID,0.232812,
2009-03-31, 01:10:05,VALID,1003.87,VALID,0,VALID,83.8338,VALID,0,VALID,25.9213,VALID,340,VALID,0.590234,
2009-03-31, 01:11:05,VALID,1003.87,VALID,0,VALID,83.9177,VALID,0,VALID,25.9232,VALID,344,VALID,0.413672,
2009-03-31, 01:12:05,VALID,1003.87,VALID,0,VALID,83.9787,VALID,0,VALID,25.8843,VALID,347,VALID,0.578906,
2009-03-31, 01:13:05,VALID,1003.89,VALID,0,VALID,84.0321,VALID,0,VALID,25.8843,VALID,339,VALID,0.457422,
2009-03-31, 01:14:05,VALID,1003.88,VALID,0,VALID,84.1618,VALID,0,VALID,25.8648,VALID,337,VALID,0.355859,
2009-03-31, 01:15:05,VALID,1003.88,VALID,0,VALID,84.2686,VALID,0,VALID,25.8473,VALID,343,VALID,0.288281,
2009-03-31, 01:16:05,VALID,1003.86,VALID,0,VALID,84.3754,VALID,0,VALID,25.8064,VALID,333,VALID,0.315625,
2009-03-31, 01:17:05,VALID,1003.84,VALID,0,VALID,84.6272,VALID,0,VALID,25.7869,VALID,9,VALID,0.481641,
2009-03-31, 01:18:05,VALID,1003.83,VALID,0,VALID,84.6272,VALID,0,VALID,25.748,VALID,339,VALID,0.388281,
2009-03-31, 01:19:05,VALID,1003.82,VALID,0,VALID,84.6729,VALID,0,VALID,25.7265,VALID,339,VALID,0.282031,
2009-03-31, 01:20:04,VALID,1003.82,VALID,0,VALID,84.8255,VALID,0,VALID,25.7285,VALID,342,VALID,0.880469,
2009-03-31, 01:21:04,VALID,1003.84,VALID,0,VALID,84.795,VALID,0,VALID,25.7285,VALID,308,VALID,0.404297,
2009-03-31, 01:22:04,VALID,1003.78,VALID,0,VALID,84.8484,VALID,0,VALID,25.709,VALID,288,VALID,0.233203,
2009-03-31, 01:23:04,VALID,1003.77,VALID,0,VALID,84.94,VALID,0,VALID,25.6895,VALID,275,VALID,0.567578,
2009-03-31, 01:24:04,VALID,1003.79,VALID,0,VALID,85.0239,VALID,0,VALID,25.67,VALID,274,VALID,0.155469,
2009-03-31, 01:25:04,VALID,1003.79,VALID,0,VALID,85.1078,VALID,0,VALID,25.6506,VALID,274,VALID,0.185156,
2009-03-31, 01:26:04,VALID,1003.79,VALID,0,VALID,85.1917,VALID,0,VALID,25.6292,VALID,304,VALID,0.572266,
2009-03-31, 01:27:04,VALID,1003.78,VALID,0,VALID,85.1993,VALID,0,VALID,25.6311,VALID,329,VALID,0.164063,
2009-03-31, 01:28:04,VALID,1003.78,VALID,0,VALID,85.2451,VALID,0,VALID,25.6311,VALID,326,VALID,0.427734,
2009-03-31, 01:29:04,VALID,1003.75,VALID,0,VALID,85.3061,VALID,0,VALID,25.6116,VALID,326,VALID,0.14375,
2009-03-31, 01:30:04,VALID,1003.72,VALID,0,VALID,85.4663,VALID,0,VALID,25.5921,VALID,328,VALID,0.201953,
2009-03-31, 01:31:04,VALID,1003.7,VALID,0,VALID,85.4511,VALID,0,VALID,25.5746,VALID,330,VALID,0.345703,
2009-03-31, 01:32:04,VALID,1003.7,VALID,0,VALID,85.5503,VALID,0,VALID,25.5727,VALID,330,VALID,0.116797,
2009-03-31, 01:33:04,VALID,1003.68,VALID,0,VALID,85.7181,VALID,0,VALID,25.5337,VALID,326,VALID,0.600781,
2009-03-31, 01:34:04,VALID,1003.66,VALID,0,VALID,85.7639,VALID,0,VALID,25.5337,VALID,340,VALID,0.424219,
2009-03-31, 01:35:04,VALID,1003.65,VALID,0,VALID,85.8325,VALID,0,VALID,25.5142,VALID,312,VALID,0.557422,
2009-03-31, 01:36:04,VALID,1003.64,VALID,0,VALID,85.8631,VALID,0,VALID,25.5142,VALID,313,VALID,0.258984,
2009-03-31, 01:37:04,VALID,1003.65,VALID,0,VALID,85.8783,VALID,0,VALID,25.4928,VALID,311,VALID,0.334766,
2009-03-31, 01:38:04,VALID,1003.65,VALID,0,VALID,85.9927,VALID,0,VALID,25.5142,VALID,310,VALID,0,
2009-03-31, 01:39:04,VALID,1003.64,VALID,0,VALID,86.1377,VALID,0,VALID,25.4753,VALID,310,VALID,0.257031,
2009-03-31, 01:40:04,VALID,1003.62,VALID,0,VALID,86.1987,VALID,0,VALID,25.4753,VALID,312,VALID,0.476172,
2009-03-31, 01:41:04,VALID,1003.58,VALID,0,VALID,86.0767,VALID,0,VALID,25.4363,VALID,359,VALID,0.904297,
2009-03-31, 01:42:04,VALID,1003.56,VALID,0,VALID,86.0309,VALID,0,VALID,25.4948,VALID,324,VALID,0.353906,
2009-03-31, 01:43:04,VALID,1003.55,VALID,0,VALID,85.8707,VALID,0,VALID,25.4948,VALID,323,VALID,0.455469,
2009-03-31, 01:44:04,VALID,1003.51,VALID,0,VALID,85.9241,VALID,0,VALID,25.4967,VALID,327,VALID,0.364453,
2009-03-31, 01:45:04,VALID,1003.48,VALID,0,VALID,85.9622,VALID,0,VALID,25.4967,VALID,353,VALID,0.223047,
2009-03-31, 01:46:04,VALID,1003.48,VALID,0,VALID,86.0233,VALID,0,VALID,25.4753,VALID,353,VALID,0.259766,
2009-03-31, 01:47:04,VALID,1003.49,VALID,0,VALID,86.1606,VALID,0,VALID,25.4753,VALID,354,VALID,0.519922,
2009-03-31, 01:48:04,VALID,1003.46,VALID,0,VALID,86.1682,VALID,0,VALID,25.4948,VALID,2,VALID,0.802734,
2009-03-31, 01:49:04,VALID,1003.46,VALID,0,VALID,86.0767,VALID,0,VALID,25.5142,VALID,343,VALID,0.148047,
2009-03-31, 01:50:04,VALID,1003.47,VALID,0,VALID,86.0156,VALID,0,VALID,25.5142,VALID,341,VALID,0.442969,
2009-03-31, 01:51:04,VALID,1003.46,VALID,0,VALID,86.0538,VALID,0,VALID,25.4734,VALID,345,VALID,0.501172,
2009-03-31, 01:52:04,VALID,1003.47,VALID,0,VALID,86.2216,VALID,0,VALID,25.4753,VALID,345,VALID,0.0183594,
2009-03-31, 01:53:04,VALID,1003.44,VALID,0,VALID,86.0843,VALID,0,VALID,25.4558,VALID,319,VALID,0.330859,
2009-03-31, 01:54:04,VALID,1003.45,VALID,0,VALID,86.069,VALID,0,VALID,25.4753,VALID,27,VALID,0.344141,
2009-03-31, 01:55:04,VALID,1003.46,VALID,0,VALID,85.9241,VALID,0,VALID,25.4948,VALID,26,VALID,0.00585938,
2009-03-31, 01:56:04,VALID,1003.46,VALID,0,VALID,85.9088,VALID,0,VALID,25.4734,VALID,1,VALID,0.372656,
2009-03-31, 01:57:04,VALID,1003.43,VALID,0,VALID,85.8325,VALID,0,VALID,25.5142,VALID,331,VALID,0.191016,
2009-03-31, 01:58:04,VALID,1003.46,VALID,0,VALID,85.6494,VALID,0,VALID,25.4928,VALID,331,VALID,0.343359,
2009-03-31, 01:59:04,VALID,1003.47,VALID,0,VALID,85.6266,VALID,0,VALID,25.5337,VALID,344,VALID,0.603125,
2009-03-31, 02:00:04,VALID,1003.46,VALID,0,VALID,85.4129,VALID,0,VALID,25.5532,VALID,349,VALID,0.316406,
2009-03-31, 02:01:04,VALID,1003.46,VALID,0,VALID,85.2756,VALID,0,VALID,25.5727,VALID,300,VALID,0.273438,
2009-03-31, 02:02:04,VALID,1003.48,VALID,0,VALID,85.3061,VALID,0,VALID,25.5727,VALID,303,VALID,0.378125,
2009-03-31, 02:03:04,VALID,1003.46,VALID,0,VALID,85.3824,VALID,0,VALID,25.5921,VALID,305,VALID,0.341797,
2009-03-31, 02:04:04,VALID,1003.47,VALID,0,VALID,85.4969,VALID,0,VALID,25.5727,VALID,346,VALID,0.594141,
2009-03-31, 02:05:04,VALID,1003.44,VALID,0,VALID,85.4587,VALID,0,VALID,25.5921,VALID,344,VALID,0.355469,
2009-03-31, 02:06:04,VALID,1003.43,VALID,0,VALID,85.2833,VALID,0,VALID,25.5727,VALID,8,VALID,0.659766,
2009-03-31, 02:07:04,VALID,1003.45,VALID,0,VALID,84.9857,VALID,0,VALID,25.5921,VALID,348,VALID,1.03164,
2009-03-31, 02:08:04,VALID,1003.44,VALID,0,VALID,84.8103,VALID,0,VALID,25.6311,VALID,344,VALID,0.794141,
2009-03-31, 02:09:04,VALID,1003.44,VALID,0,VALID,84.7492,VALID,0,VALID,25.6506,VALID,341,VALID,0.421484,
2009-03-31, 02:10:04,VALID,1003.43,VALID,0,VALID,84.7569,VALID,0,VALID,25.6506,VALID,345,VALID,0.600391,
2009-03-31, 02:11:04,VALID,1003.4,VALID,0,VALID,84.7874,VALID,0,VALID,25.6292,VALID,336,VALID,0.0519531,
2009-03-31, 02:12:04,VALID,1003.38,VALID,0,VALID,84.8026,VALID,0,VALID,25.6311,VALID,348,VALID,0.483594,
2009-03-31, 02:13:04,VALID,1003.38,VALID,0,VALID,84.8789,VALID,0,VALID,25.6311,VALID,309,VALID,0.229687,
2009-03-31, 02:14:04,VALID,1003.4,VALID,0,VALID,84.9781,VALID,0,VALID,25.5902,VALID,310,VALID,0.334375,
2009-03-31, 02:15:04,VALID,1003.35,VALID,0,VALID,85.1612,VALID,0,VALID,25.5318,VALID,310,VALID,0.313281,
2009-03-31, 02:16:04,VALID,1003.38,VALID,0,VALID,85.1841,VALID,0,VALID,25.5123,VALID,353,VALID,0.367578,
2009-03-31, 02:17:04,VALID,1003.38,VALID,0,VALID,85.1078,VALID,0,VALID,25.5337,VALID,347,VALID,0.408594,
2009-03-31, 02:18:04,VALID,1003.35,VALID,0,VALID,85.1459,VALID,0,VALID,25.5337,VALID,343,VALID,0.482031,
2009-03-31, 02:19:04,VALID,1003.35,VALID,0,VALID,85.0925,VALID,0,VALID,25.5123,VALID,315,VALID,0.251953,
2009-03-31, 02:20:04,VALID,1003.34,VALID,0,VALID,85.1383,VALID,0,VALID,25.5551,VALID,354,VALID,0.714844,
2009-03-31, 02:21:04,VALID,1003.32,VALID,0,VALID,85.2451,VALID,0,VALID,25.5123,VALID,345,VALID,0.505469,
2009-03-31, 02:22:04,VALID,1003.3,VALID,0,VALID,85.329,VALID,0,VALID,25.4948,VALID,343,VALID,0.623047,
2009-03-31, 02:23:04,VALID,1003.29,VALID,0,VALID,85.3977,VALID,0,VALID,25.4734,VALID,354,VALID,0.532812,
2009-03-31, 02:24:04,VALID,1003.26,VALID,0,VALID,85.5045,VALID,0,VALID,25.4539,VALID,344,VALID,0.666016,
2009-03-31, 02:25:04,VALID,1003.24,VALID,0,VALID,85.596,VALID,0,VALID,25.4363,VALID,340,VALID,0.525,
2009-03-31, 02:26:04,VALID,1003.22,VALID,0,VALID,85.6876,VALID,0,VALID,25.4149,VALID,339,VALID,0.244141,
2009-03-31, 02:27:04,VALID,1003.2,VALID,0,VALID,85.8478,VALID,0,VALID,25.376,VALID,358,VALID,0.402344,
2009-03-31, 02:28:04,VALID,1003.17,VALID,0,VALID,85.9393,VALID,0,VALID,25.3565,VALID,360,VALID,0.742188,
2009-03-31, 02:29:04,VALID,1003.14,VALID,0,VALID,85.9241,VALID,0,VALID,25.339,VALID,347,VALID,0.195313,
2009-03-31, 02:30:04,VALID,1003.13,VALID,0,VALID,85.8783,VALID,0,VALID,25.3176,VALID,39,VALID,0.698047,
2009-03-31, 02:31:04,VALID,1003.08,VALID,0,VALID,85.9012,VALID,0,VALID,25.3584,VALID,32,VALID,0.319141,
2009-03-31, 02:32:04,VALID,1003.08,VALID,0,VALID,85.8478,VALID,0,VALID,25.3176,VALID,4,VALID,0.428125,
2009-03-31, 02:33:04,VALID,1003.08,VALID,0,VALID,85.8631,VALID,0,VALID,25.3195,VALID,11,VALID,0.476563,
2009-03-31, 02:34:04,VALID,1003.05,VALID,0,VALID,85.4358,VALID,0,VALID,25.3,VALID,11,VALID,0.669531,
2009-03-31, 02:35:04,VALID,1003.03,VALID,0,VALID,85.3977,VALID,0,VALID,25.3195,VALID,7,VALID,0.615234,
2009-03-31, 02:36:04,VALID,1002.99,VALID,0,VALID,84.9628,VALID,0,VALID,25.337,VALID,41,VALID,0.935547,
2009-03-31, 02:37:04,VALID,1003.04,VALID,0,VALID,84.6272,VALID,0,VALID,25.4363,VALID,9,VALID,0.523438,
2009-03-31, 02:38:04,VALID,1003.03,VALID,0,VALID,84.4593,VALID,0,VALID,25.4344,VALID,4,VALID,0.398047,
2009-03-31, 02:39:04,VALID,1003.01,VALID,0,VALID,84.0703,VALID,0,VALID,25.5123,VALID,10,VALID,0.571484,
2009-03-31, 02:40:04,VALID,1003.03,VALID,0,VALID,83.3837,VALID,0,VALID,25.6116,VALID,18,VALID,0.58125,
2009-03-31, 02:41:04,VALID,1003.05,VALID,0,VALID,83.0861,VALID,0,VALID,25.6311,VALID,328,VALID,0.573828,
2009-03-31, 02:42:04,VALID,1003.08,VALID,0,VALID,82.9107,VALID,0,VALID,25.6097,VALID,19,VALID,0.729297,
2009-03-31, 02:43:04,VALID,1003.09,VALID,0,VALID,82.8649,VALID,0,VALID,25.6292,VALID,351,VALID,0.408594,
2009-03-31, 02:44:04,VALID,1003.09,VALID,0,VALID,82.5369,VALID,0,VALID,25.6097,VALID,16,VALID,0.717188,
2009-03-31, 02:45:04,VALID,1003.1,VALID,0,VALID,82.3461,VALID,0,VALID,25.6506,VALID,36,VALID,0.579297,
2009-03-31, 02:46:04,VALID,1003.13,VALID,0,VALID,81.9571,VALID,0,VALID,25.709,VALID,30,VALID,1.79375,
2009-03-31, 02:47:04,VALID,1003.1,VALID,0,VALID,81.5451,VALID,0,VALID,25.7869,VALID,33,VALID,0.735547,
2009-03-31, 02:48:04,VALID,1003.12,VALID,0,VALID,81.3544,VALID,0,VALID,25.8453,VALID,20,VALID,0.678906,
2009-03-31, 02:49:04,VALID,1003.14,VALID,0,VALID,81.4536,VALID,0,VALID,25.8453,VALID,17,VALID,0.957812,
2009-03-31, 02:50:04,VALID,1003.15,VALID,0,VALID,81.3086,VALID,0,VALID,25.9038,VALID,29,VALID,1.4,
2009-03-31, 02:51:04,VALID,1003.16,VALID,0,VALID,81.0797,VALID,0,VALID,25.9602,VALID,360,VALID,0.697266,
2009-03-31, 02:52:04,VALID,1003.18,VALID,0,VALID,81.2323,VALID,0,VALID,26.0012,VALID,351,VALID,0.535937,
2009-03-31, 02:53:04,VALID,1003.2,VALID,0,VALID,81.3467,VALID,0,VALID,25.9622,VALID,22,VALID,0.63125,
2009-03-31, 02:54:04,VALID,1003.22,VALID,0,VALID,81.6061,VALID,0,VALID,25.9622,VALID,22,VALID,0.256641,
2009-03-31, 02:55:04,VALID,1003.24,VALID,0,VALID,81.8274,VALID,0,VALID,25.9232,VALID,22,VALID,0.414844,
2009-03-31, 02:56:04,VALID,1003.23,VALID,0,VALID,82.1173,VALID,0,VALID,25.8434,VALID,17,VALID,0.424609,
2009-03-31, 02:57:04,VALID,1003.23,VALID,0,VALID,82.369,VALID,0,VALID,25.785,VALID,15,VALID,0.167187,
2009-03-31, 02:58:04,VALID,1003.24,VALID,0,VALID,82.6971,VALID,0,VALID,25.748,VALID,15,VALID,0,
2009-03-31, 02:59:04,VALID,1003.26,VALID,0,VALID,82.987,VALID,0,VALID,25.709,VALID,15,VALID,0.00117188,
2009-03-31, 03:00:04,VALID,1003.26,VALID,0,VALID,83.4065,VALID,0,VALID,25.6311,VALID,15,VALID,0.123438,
2009-03-31, 03:01:04,VALID,1003.26,VALID,0,VALID,83.9253,VALID,0,VALID,25.5707,VALID,15,VALID,0.00859375,
2009-03-31, 03:02:04,VALID,1003.24,VALID,0,VALID,84.4364,VALID,0,VALID,25.5337,VALID,15,VALID,0,
2009-03-31, 03:03:04,VALID,1003.22,VALID,0,VALID,84.8408,VALID,0,VALID,25.4558,VALID,15,VALID,0.028125,
2009-03-31, 03:04:04,VALID,1003.23,VALID,0,VALID,85.1993,VALID,0,VALID,25.3565,VALID,15,VALID,0.345313,
2009-03-31, 03:05:04,VALID,1003.24,VALID,0,VALID,85.5198,VALID,0,VALID,25.2786,VALID,15,VALID,0.0605469,
2009-03-31, 03:06:04,VALID,1003.22,VALID,0,VALID,86.069,VALID,0,VALID,25.2221,VALID,15,VALID,0.0195313,
2009-03-31, 03:07:04,VALID,1003.2,VALID,0,VALID,86.4734,VALID,0,VALID,25.1637,VALID,15,VALID,0.177344,
2009-03-31, 03:08:04,VALID,1003.23,VALID,0,VALID,86.8243,VALID,0,VALID,25.1053,VALID,15,VALID,0.20625,
2009-03-31, 03:09:04,VALID,1003.23,VALID,0,VALID,87.0684,VALID,0,VALID,25.045,VALID,15,VALID,0.0078125,
2009-03-31, 03:10:04,VALID,1003.22,VALID,0,VALID,87.3202,VALID,0,VALID,24.9866,VALID,15,VALID,0.0183594,
2009-03-31, 03:11:04,VALID,1003.21,VALID,0,VALID,87.6101,VALID,0,VALID,24.9495,VALID,15,VALID,0,
2009-03-31, 03:12:04,VALID,1003.23,VALID,0,VALID,87.816,VALID,0,VALID,24.9106,VALID,15,VALID,0,
2009-03-31, 03:13:04,VALID,1003.24,VALID,0,VALID,88.0144,VALID,0,VALID,24.8113,VALID,15,VALID,0,
2009-03-31, 03:14:04,VALID,1003.25,VALID,0,VALID,88.3195,VALID,0,VALID,24.7548,VALID,15,VALID,0,
2009-03-31, 03:15:04,VALID,1003.23,VALID,0,VALID,88.6018,VALID,0,VALID,24.6964,VALID,15,VALID,0,
2009-03-31, 03:16:04,VALID,1003.26,VALID,0,VALID,88.7239,VALID,0,VALID,24.638,VALID,15,VALID,0,
2009-03-31, 03:17:04,VALID,1003.27,VALID,0,VALID,88.9833,VALID,0,VALID,24.5601,VALID,15,VALID,0,
2009-03-31, 03:18:04,VALID,1003.28,VALID,0,VALID,89.4105,VALID,0,VALID,24.5017,VALID,15,VALID,0,
2009-03-31, 03:19:04,VALID,1003.28,VALID,0,VALID,89.7614,VALID,0,VALID,24.4609,VALID,15,VALID,0,
2009-03-31, 03:20:04,VALID,1003.27,VALID,0,VALID,89.9903,VALID,0,VALID,24.383,VALID,15,VALID,0,
2009-03-31, 03:21:04,VALID,1003.25,VALID,0,VALID,90.1429,VALID,0,VALID,24.3654,VALID,15,VALID,0,
2009-03-31, 03:22:04,VALID,1003.25,VALID,0,VALID,90.4404,VALID,0,VALID,24.307,VALID,15,VALID,0,
2009-03-31, 03:23:04,VALID,1003.23,VALID,0,VALID,90.6692,VALID,0,VALID,24.2486,VALID,15,VALID,0,
2009-03-31, 03:24:04,VALID,1003.24,VALID,0,VALID,90.8447,VALID,0,VALID,24.2078,VALID,15,VALID,0,
2009-03-31, 03:25:04,VALID,1003.2,VALID,0,VALID,91.1041,VALID,0,VALID,24.1884,VALID,15,VALID,0,
2009-03-31, 03:26:04,VALID,1003.19,VALID,0,VALID,91.1575,VALID,0,VALID,24.1707,VALID,15,VALID,0,
2009-03-31, 03:27:04,VALID,1003.21,VALID,0,VALID,91.1346,VALID,0,VALID,24.091,VALID,15,VALID,0,
2009-03-31, 03:28:04,VALID,1003.2,VALID,0,VALID,91.2109,VALID,0,VALID,24.0521,VALID,15,VALID,0,
2009-03-31, 03:29:04,VALID,1003.19,VALID,0,VALID,91.2643,VALID,0,VALID,24.0345,VALID,15,VALID,0,
2009-03-31, 03:30:04,VALID,1003.16,VALID,0,VALID,91.3711,VALID,0,VALID,23.9937,VALID,15,VALID,0,
2009-03-31, 03:31:04,VALID,1003.16,VALID,0,VALID,91.4474,VALID,0,VALID,23.9566,VALID,15,VALID,0,
2009-03-31, 03:32:04,VALID,1003.17,VALID,0,VALID,91.5466,VALID,0,VALID,23.9353,VALID,15,VALID,0,
2009-03-31, 03:33:04,VALID,1003.19,VALID,0,VALID,91.6763,VALID,0.100563,VALID,23.9159,VALID,15,VALID,0,
2009-03-31, 03:34:04,VALID,1003.19,VALID,0,VALID,91.6839,VALID,0,VALID,23.8769,VALID,15,VALID,0,
2009-03-31, 03:35:04,VALID,1003.18,VALID,0,VALID,91.7449,VALID,0,VALID,23.8769,VALID,15,VALID,0,
2009-03-31, 03:36:04,VALID,1003.18,VALID,0,VALID,91.9356,VALID,0,VALID,23.8982,VALID,15,VALID,0.431641,
2009-03-31, 03:37:04,VALID,1003.19,VALID,0,VALID,92.1035,VALID,0,VALID,23.9177,VALID,354,VALID,0.165234,
2009-03-31, 03:38:04,VALID,1003.21,VALID,0,VALID,91.9585,VALID,0,VALID,23.9353,VALID,354,VALID,0.0046875,
2009-03-31, 03:39:04,VALID,1003.23,VALID,0,VALID,91.9509,VALID,0,VALID,23.9761,VALID,354,VALID,0.0675781,
2009-03-31, 03:40:04,VALID,1003.21,VALID,0,VALID,91.7449,VALID,0,VALID,23.9159,VALID,354,VALID,0.015625,
2009-03-31, 03:41:04,VALID,1003.24,VALID,0,VALID,91.661,VALID,0,VALID,23.9371,VALID,354,VALID,0,
2009-03-31, 03:42:04,VALID,1003.25,VALID,0,VALID,91.5847,VALID,0,VALID,23.8982,VALID,354,VALID,0,
2009-03-31, 03:43:04,VALID,1003.26,VALID,0,VALID,91.6305,VALID,0,VALID,23.8575,VALID,354,VALID,0,
2009-03-31, 03:44:04,VALID,1003.27,VALID,0,VALID,91.5542,VALID,0,VALID,23.8398,VALID,354,VALID,0,
2009-03-31, 03:45:04,VALID,1003.28,VALID,0,VALID,91.6076,VALID,0,VALID,23.8009,VALID,354,VALID,0,
2009-03-31, 03:46:04,VALID,1003.29,VALID,0,VALID,91.7144,VALID,0,VALID,23.7601,VALID,354,VALID,0.0046875,
2009-03-31, 03:47:04,VALID,1003.26,VALID,0,VALID,91.7831,VALID,0,VALID,23.7407,VALID,354,VALID,0.344141,